(°C)
10°
11°
12°
12°
13°
14°
14°
(°C)
WSW
WSW
WSW
WSW
WSW
WSW
WSW
(km/h)
17-32
19-34
20-36
21-37
22-39
23-40
23-40
(mm)
0
0
0
0.4
0.5
0
0
(%)
29
52
58
93
91
64
43

Sonnenhöhe

/ 44.6°
sun-icon
UV 2
03:59
20:56
Abnehmender Halbmond (327°)
03:07
17:28

METAR für 55.6°N 37.27°O (UUWW)

Zeit Bedingungen Temperatur/
Taupunkt
Wind Sichtweite Wetter Wolken Druck Änderung Roh
MVFR 11°C / 7°C 270º 12kt >10km - Few Clouds 1200ft
Broken Clouds 2300ft
997 No Significant change. Runway 24: Damp, 51-100% contamination with <1mm, friction coefficient 0.60. UUWW 270630Z 27006MPS 9999 FEW012 BKN023 11/07 Q0997 R24/190060 NOSIG
MVFR 10°C / 7°C 270º 12kt >10km - Few Clouds 1000ft
Broken Clouds 2300ft
997 No Significant change. Runway 24: Damp, 51-100% contamination with <1mm, friction coefficient 0.60. UUWW 270600Z 27006MPS 9999 FEW010 BKN023 10/07 Q0997 R24/190060 NOSIG
MVFR 10°C / 7°C 270º 12kt >10km - Few Clouds 1000ft
Broken Clouds 2300ft
997 No Significant change. Runway 24: Wet or puddles, 51-100% contamination with 1mm, friction coefficient 0.50. UUWW 270530Z 27006MPS 9999 FEW010 BKN023 10/07 Q0997 R24/290150 NOSIG
VFR 9°C / 7°C 270º 12kt >10km - Few Clouds 800ft
Overcast 4600ft
997 No Significant change. Runway 24: Wet or puddles, 51-100% contamination with 1mm, friction coefficient 0.50. UUWW 270500Z 27006MPS 9999 FEW008 OVC046 09/07 Q0997 R24/290150 NOSIG
VFR 9°C / 7°C 270º 10kt >10km - Few Clouds 600ft
Overcast 4600ft
997 No Significant change. Runway 24: Wet or puddles, 51-100% contamination with 1mm, friction coefficient 0.50. UUWW 270430Z 27005MPS 9999 FEW006 OVC046 09/07 Q0997 R24/290150 NOSIG
VFR 9°C / 8°C 270º 6kt >10km Light Rain 1.00mm precipitation Vertical Visibility of 0ft.
Overcast 4600ft
997 No Significant change. Runway 24: Wet or puddles, 51-100% contamination with 1mm, friction coefficient 0.50. UUWW 270400Z 27003MPS 9999 -RA FEW005 OVC046 09/08 Q0997 R24/290150 NOSIG
MVFR 9°C / 7°C 280º 8kt 7000m Light Rain 1.00mm precipitation Vertical Visibility of 0ft.
Overcast 4600ft
997 No Significant change. Runway 24: Wet or puddles, 51-100% contamination with 1mm, friction coefficient 0.50. UUWW 270330Z 28004MPS 7000 -RA FEW004 OVC046 09/07 Q0997 R24/290150 NOSIG
VFR 9°C / 7°C 280º 8kt >10km Light Rain 1.00mm precipitation Vertical Visibility of 0ft.
Overcast 4600ft
997 No Significant change. Runway 24: Wet or puddles, 51-100% contamination with 1mm, friction coefficient 0.50. UUWW 270300Z 28004MPS 9999 -RA FEW004 OVC046 09/07 Q0997 R24/290150 NOSIG
VFR 9°C / 7°C 280º 8kt >10km Light Rain 1.00mm precipitation Vertical Visibility of 0ft.
Overcast 4600ft
997 No Significant change. Runway 24: Wet or puddles, 51-100% contamination with 1mm, friction coefficient 0.50. UUWW 270230Z 28004MPS 9999 -RA FEW005 OVC046 09/07 Q0997 R24/290150 NOSIG
VFR 9°C / 7°C 290º 10kt >10km Light Rain 1.00mm precipitation Vertical Visibility of 0ft.
Overcast 4600ft
997 No Significant change. Runway 24: Wet or puddles, 51-100% contamination with 3mm, friction coefficient 0.50. UUWW 270200Z 29005MPS 9999 -RA FEW006 OVC046 09/07 Q0997 R24/290350 NOSIG
VFR 9°C / 8°C 290º 8kt >10km Light Rain 1.00mm precipitation Vertical Visibility of 0ft.
Overcast 4600ft
997 No Significant change. Runway 24: Wet or puddles, 51-100% contamination with 3mm, friction coefficient 0.50. UUWW 270130Z 29004MPS 9999 -RA FEW005 OVC046 09/08 Q0997 R24/290350 NOSIG
VFR 9°C / 8°C 300º 10kt. Wind Shear present on Runway 24. >10km Light Rain 1.00mm precipitation Vertical Visibility of 0ft.
Overcast 4600ft
997 No Significant change. Runway 24: Wet or puddles, 51-100% contamination with 3mm, friction coefficient 0.50. UUWW 270100Z 30005MPS 9999 -RA FEW005 OVC046 09/08 Q0997 WS R24 R24/290350 NOSIG
VFR 10°C / 8°C 300º 14kt Gust 23kt 9000m Light Rain 1.00mm precipitation Vertical Visibility of 0ft.
Overcast 4600ft
997 No Significant change. Runway 24: Wet or puddles, 51-100% contamination with 3mm, friction coefficient 0.50. UUWW 270030Z 30007G12MPS 9000 -RA FEW006 OVC046 10/08 Q0997 R24/290350 NOSIG
IFR 10°C / 8°C 300º 14kt 9000m Light Rain 1.00mm precipitation Vertical Visibility of 0ft.
Overcast 4000ft
997 No Significant change. Runway 24: Wet or puddles, 51-100% contamination with 3mm, friction coefficient 0.50. UUWW 270000Z 30007MPS 9000 -RA BKN008 OVC040 10/08 Q0997 R24/290350 NOSIG
IFR 10°C / 8°C 310º 14kt. Wind Shear present on Runway 24. 9000m Light Rain 1.00mm precipitation Vertical Visibility of 0ft.
Overcast 4000ft
997 No Significant change. Runway 24: Wet or puddles, 51-100% contamination with 3mm, friction coefficient 0.50. UUWW 262330Z 31007MPS 9000 -RA BKN005 OVC040 10/08 Q0997 WS R24 R24/290350 NOSIG
LIFR 10°C / 8°C 310º 17kt. Wind Shear present on Runway 24. 9000m Light Rain 1.00mm precipitation Vertical Visibility of 0ft.
Overcast 3000ft
997 No Significant change. Runway 24: Wet or puddles, 51-100% contamination with 3mm, friction coefficient 0.50. UUWW 262300Z 31009MPS 9000 -RA BKN004 OVC030 10/08 Q0997 WS R24 R24/290350 NOSIG
IFR 10°C / 8°C 330º 14kt. Wind Shear present on Runway 06. 6000m Light Rain 1.00mm precipitation Vertical Visibility of 0ft.
Overcast 3300ft
997 No Significant change. Runway 06: Wet or puddles, 51-100% contamination with 3mm, friction coefficient 0.50. UUWW 262230Z 33007MPS 6000 -RA BKN006 OVC033 10/08 Q0997 WS R06 R06/290350 NOSIG
LIFR 11°C / 9°C 340º 12kt 4800m Light Rain 1.00mm precipitation Vertical Visibility of 0ft.
Overcast 3300ft
996 No Significant change. Runway 06: Wet or puddles, 51-100% contamination with 3mm, friction coefficient 0.50. UUWW 262200Z 34006MPS 4800 -RA BKN004 OVC033 11/09 Q0996 R06/290350 NOSIG
LIFR 11°C / 9°C 360º 12kt 5000m Light Rain 1.00mm precipitation Vertical Visibility of 0ft.
Overcast 3300ft
996 No Significant change. Runway 06: Wet or puddles, 51-100% contamination with 3mm, friction coefficient 0.50. UUWW 262130Z 36006MPS 5000 -RA BKN004 OVC033 11/09 Q0996 R06/290350 NOSIG
LIFR 11°C / 9°C 20º 12kt 5000m Light Showers Rain 3.00mm precipitation Vertical Visibility of 0ft.
Broken Clouds 2600ft
996 No Significant change. Runway 06: Wet or puddles, 51-100% contamination with 3mm, friction coefficient 0.50. UUWW 262100Z 02006MPS 5000 -SHRA BKN003 BKN026CB 11/09 Q0996 R06/290350 NOSIG
LIFR 11°C / 9°C 30º 10kt 4400m Light Showers Rain 3.00mm precipitation Vertical Visibility of 0ft.
Broken Clouds 2600ft
997 No Significant change. Runway 06: Wet or puddles, 51-100% contamination with 3mm, friction coefficient 0.50. UUWW 262030Z 03005MPS 4400 -SHRA BKN003 BKN026CB 11/09 Q0997 R06/290350 NOSIG
MVFR 11°C / 9°C 40º 16kt 5000m Light Showers Rain 3.00mm precipitation Vertical Visibility of 0ft.
Broken Clouds 3300ft
997 No Significant change. Runway 06: Wet or puddles, 51-100% contamination with 3mm, friction coefficient 0.50. UUWW 262000Z 04008MPS 5000 -SHRA FEW005 BKN033CB 11/09 Q0997 R06/290350 NOSIG
MVFR 11°C / 9°C 70º 14kt 5000m Light Showers Rain 3.00mm precipitation Vertical Visibility of 0ft.
Broken Clouds 2600ft
997 No Significant change. Runway 06: Wet or puddles, 51-100% contamination with 3mm, friction coefficient 0.50. UUWW 261930Z 07007MPS 5000 -SHRA FEW009 BKN026CB 11/09 Q0997 R06/290350 NOSIG
IFR 11°C / 9°C 60º 16kt 4600m Light Showers Rain 3.00mm precipitation Vertical Visibility of 0ft.
Broken Clouds 3000ft
998 No Significant change. Runway 06: Wet or puddles, 51-100% contamination with 3mm, friction coefficient 0.50. UUWW 261900Z 06008MPS 4600 -SHRA FEW008 BKN030CB 11/09 Q0998 R06/290350 NOSIG

MVFR

11°C / 7°C

[Mehr]
Wind 270º 12kt
Sichtweite >10km
Wetter -
Wolken Few Clouds 1200ft
Broken Clouds 2300ft
Druck 997
Änderung No Significant change. Runway 24: Damp, 51-100% contamination with <1mm, friction coefficient 0.60.
Roh UUWW 270630Z 27006MPS 9999 FEW012 BKN023 11/07 Q0997 R24/190060 NOSIG

MVFR

10°C / 7°C

[Mehr]
Wind 270º 12kt
Sichtweite >10km
Wetter -
Wolken Few Clouds 1000ft
Broken Clouds 2300ft
Druck 997
Änderung No Significant change. Runway 24: Damp, 51-100% contamination with <1mm, friction coefficient 0.60.
Roh UUWW 270600Z 27006MPS 9999 FEW010 BKN023 10/07 Q0997 R24/190060 NOSIG

MVFR

10°C / 7°C

[Mehr]
Wind 270º 12kt
Sichtweite >10km
Wetter -
Wolken Few Clouds 1000ft
Broken Clouds 2300ft
Druck 997
Änderung No Significant change. Runway 24: Wet or puddles, 51-100% contamination with 1mm, friction coefficient 0.50.
Roh UUWW 270530Z 27006MPS 9999 FEW010 BKN023 10/07 Q0997 R24/290150 NOSIG

VFR

9°C / 7°C

[Mehr]
Wind 270º 12kt
Sichtweite >10km
Wetter -
Wolken Few Clouds 800ft
Overcast 4600ft
Druck 997
Änderung No Significant change. Runway 24: Wet or puddles, 51-100% contamination with 1mm, friction coefficient 0.50.
Roh UUWW 270500Z 27006MPS 9999 FEW008 OVC046 09/07 Q0997 R24/290150 NOSIG

VFR

9°C / 7°C

[Mehr]
Wind 270º 10kt
Sichtweite >10km
Wetter -
Wolken Few Clouds 600ft
Overcast 4600ft
Druck 997
Änderung No Significant change. Runway 24: Wet or puddles, 51-100% contamination with 1mm, friction coefficient 0.50.
Roh UUWW 270430Z 27005MPS 9999 FEW006 OVC046 09/07 Q0997 R24/290150 NOSIG

VFR

9°C / 8°C

[Mehr]
Wind 270º 6kt
Sichtweite >10km
Wetter Light Rain 1.00mm precipitation
Wolken Vertical Visibility of 0ft.
Overcast 4600ft
Druck 997
Änderung No Significant change. Runway 24: Wet or puddles, 51-100% contamination with 1mm, friction coefficient 0.50.
Roh UUWW 270400Z 27003MPS 9999 -RA FEW005 OVC046 09/08 Q0997 R24/290150 NOSIG

MVFR

9°C / 7°C

[Mehr]
Wind 280º 8kt
Sichtweite 7000m
Wetter Light Rain 1.00mm precipitation
Wolken Vertical Visibility of 0ft.
Overcast 4600ft
Druck 997
Änderung No Significant change. Runway 24: Wet or puddles, 51-100% contamination with 1mm, friction coefficient 0.50.
Roh UUWW 270330Z 28004MPS 7000 -RA FEW004 OVC046 09/07 Q0997 R24/290150 NOSIG

VFR

9°C / 7°C

[Mehr]
Wind 280º 8kt
Sichtweite >10km
Wetter Light Rain 1.00mm precipitation
Wolken Vertical Visibility of 0ft.
Overcast 4600ft
Druck 997
Änderung No Significant change. Runway 24: Wet or puddles, 51-100% contamination with 1mm, friction coefficient 0.50.
Roh UUWW 270300Z 28004MPS 9999 -RA FEW004 OVC046 09/07 Q0997 R24/290150 NOSIG

VFR

9°C / 7°C

[Mehr]
Wind 280º 8kt
Sichtweite >10km
Wetter Light Rain 1.00mm precipitation
Wolken Vertical Visibility of 0ft.
Overcast 4600ft
Druck 997
Änderung No Significant change. Runway 24: Wet or puddles, 51-100% contamination with 1mm, friction coefficient 0.50.
Roh UUWW 270230Z 28004MPS 9999 -RA FEW005 OVC046 09/07 Q0997 R24/290150 NOSIG

VFR

9°C / 7°C

[Mehr]
Wind 290º 10kt
Sichtweite >10km
Wetter Light Rain 1.00mm precipitation
Wolken Vertical Visibility of 0ft.
Overcast 4600ft
Druck 997
Änderung No Significant change. Runway 24: Wet or puddles, 51-100% contamination with 3mm, friction coefficient 0.50.
Roh UUWW 270200Z 29005MPS 9999 -RA FEW006 OVC046 09/07 Q0997 R24/290350 NOSIG

VFR

9°C / 8°C

[Mehr]
Wind 290º 8kt
Sichtweite >10km
Wetter Light Rain 1.00mm precipitation
Wolken Vertical Visibility of 0ft.
Overcast 4600ft
Druck 997
Änderung No Significant change. Runway 24: Wet or puddles, 51-100% contamination with 3mm, friction coefficient 0.50.
Roh UUWW 270130Z 29004MPS 9999 -RA FEW005 OVC046 09/08 Q0997 R24/290350 NOSIG

VFR

9°C / 8°C

[Mehr]
Wind 300º 10kt. Wind Shear present on Runway 24.
Sichtweite >10km
Wetter Light Rain 1.00mm precipitation
Wolken Vertical Visibility of 0ft.
Overcast 4600ft
Druck 997
Änderung No Significant change. Runway 24: Wet or puddles, 51-100% contamination with 3mm, friction coefficient 0.50.
Roh UUWW 270100Z 30005MPS 9999 -RA FEW005 OVC046 09/08 Q0997 WS R24 R24/290350 NOSIG

VFR

10°C / 8°C

[Mehr]
Wind 300º 14kt Gust 23kt
Sichtweite 9000m
Wetter Light Rain 1.00mm precipitation
Wolken Vertical Visibility of 0ft.
Overcast 4600ft
Druck 997
Änderung No Significant change. Runway 24: Wet or puddles, 51-100% contamination with 3mm, friction coefficient 0.50.
Roh UUWW 270030Z 30007G12MPS 9000 -RA FEW006 OVC046 10/08 Q0997 R24/290350 NOSIG

IFR

10°C / 8°C

[Mehr]
Wind 300º 14kt
Sichtweite 9000m
Wetter Light Rain 1.00mm precipitation
Wolken Vertical Visibility of 0ft.
Overcast 4000ft
Druck 997
Änderung No Significant change. Runway 24: Wet or puddles, 51-100% contamination with 3mm, friction coefficient 0.50.
Roh UUWW 270000Z 30007MPS 9000 -RA BKN008 OVC040 10/08 Q0997 R24/290350 NOSIG

IFR

10°C / 8°C

[Mehr]
Wind 310º 14kt. Wind Shear present on Runway 24.
Sichtweite 9000m
Wetter Light Rain 1.00mm precipitation
Wolken Vertical Visibility of 0ft.
Overcast 4000ft
Druck 997
Änderung No Significant change. Runway 24: Wet or puddles, 51-100% contamination with 3mm, friction coefficient 0.50.
Roh UUWW 262330Z 31007MPS 9000 -RA BKN005 OVC040 10/08 Q0997 WS R24 R24/290350 NOSIG

LIFR

10°C / 8°C

[Mehr]
Wind 310º 17kt. Wind Shear present on Runway 24.
Sichtweite 9000m
Wetter Light Rain 1.00mm precipitation
Wolken Vertical Visibility of 0ft.
Overcast 3000ft
Druck 997
Änderung No Significant change. Runway 24: Wet or puddles, 51-100% contamination with 3mm, friction coefficient 0.50.
Roh UUWW 262300Z 31009MPS 9000 -RA BKN004 OVC030 10/08 Q0997 WS R24 R24/290350 NOSIG

IFR

10°C / 8°C

[Mehr]
Wind 330º 14kt. Wind Shear present on Runway 06.
Sichtweite 6000m
Wetter Light Rain 1.00mm precipitation
Wolken Vertical Visibility of 0ft.
Overcast 3300ft
Druck 997
Änderung No Significant change. Runway 06: Wet or puddles, 51-100% contamination with 3mm, friction coefficient 0.50.
Roh UUWW 262230Z 33007MPS 6000 -RA BKN006 OVC033 10/08 Q0997 WS R06 R06/290350 NOSIG

LIFR

11°C / 9°C

[Mehr]
Wind 340º 12kt
Sichtweite 4800m
Wetter Light Rain 1.00mm precipitation
Wolken Vertical Visibility of 0ft.
Overcast 3300ft
Druck 996
Änderung No Significant change. Runway 06: Wet or puddles, 51-100% contamination with 3mm, friction coefficient 0.50.
Roh UUWW 262200Z 34006MPS 4800 -RA BKN004 OVC033 11/09 Q0996 R06/290350 NOSIG

LIFR

11°C / 9°C

[Mehr]
Wind 360º 12kt
Sichtweite 5000m
Wetter Light Rain 1.00mm precipitation
Wolken Vertical Visibility of 0ft.
Overcast 3300ft
Druck 996
Änderung No Significant change. Runway 06: Wet or puddles, 51-100% contamination with 3mm, friction coefficient 0.50.
Roh UUWW 262130Z 36006MPS 5000 -RA BKN004 OVC033 11/09 Q0996 R06/290350 NOSIG

LIFR

11°C / 9°C

[Mehr]
Wind 20º 12kt
Sichtweite 5000m
Wetter Light Showers Rain 3.00mm precipitation
Wolken Vertical Visibility of 0ft.
Broken Clouds 2600ft
Druck 996
Änderung No Significant change. Runway 06: Wet or puddles, 51-100% contamination with 3mm, friction coefficient 0.50.
Roh UUWW 262100Z 02006MPS 5000 -SHRA BKN003 BKN026CB 11/09 Q0996 R06/290350 NOSIG

LIFR

11°C / 9°C

[Mehr]
Wind 30º 10kt
Sichtweite 4400m
Wetter Light Showers Rain 3.00mm precipitation
Wolken Vertical Visibility of 0ft.
Broken Clouds 2600ft
Druck 997
Änderung No Significant change. Runway 06: Wet or puddles, 51-100% contamination with 3mm, friction coefficient 0.50.
Roh UUWW 262030Z 03005MPS 4400 -SHRA BKN003 BKN026CB 11/09 Q0997 R06/290350 NOSIG

MVFR

11°C / 9°C

[Mehr]
Wind 40º 16kt
Sichtweite 5000m
Wetter Light Showers Rain 3.00mm precipitation
Wolken Vertical Visibility of 0ft.
Broken Clouds 3300ft
Druck 997
Änderung No Significant change. Runway 06: Wet or puddles, 51-100% contamination with 3mm, friction coefficient 0.50.
Roh UUWW 262000Z 04008MPS 5000 -SHRA FEW005 BKN033CB 11/09 Q0997 R06/290350 NOSIG

MVFR

11°C / 9°C

[Mehr]
Wind 70º 14kt
Sichtweite 5000m
Wetter Light Showers Rain 3.00mm precipitation
Wolken Vertical Visibility of 0ft.
Broken Clouds 2600ft
Druck 997
Änderung No Significant change. Runway 06: Wet or puddles, 51-100% contamination with 3mm, friction coefficient 0.50.
Roh UUWW 261930Z 07007MPS 5000 -SHRA FEW009 BKN026CB 11/09 Q0997 R06/290350 NOSIG

IFR

11°C / 9°C

[Mehr]
Wind 60º 16kt
Sichtweite 4600m
Wetter Light Showers Rain 3.00mm precipitation
Wolken Vertical Visibility of 0ft.
Broken Clouds 3000ft
Druck 998
Änderung No Significant change. Runway 06: Wet or puddles, 51-100% contamination with 3mm, friction coefficient 0.50.
Roh UUWW 261900Z 06008MPS 4600 -SHRA FEW008 BKN030CB 11/09 Q0998 R06/290350 NOSIG

TAF für 55.6°N 37.27°O (UUWW)

From till


Maximum Temperature 15ºC on . Minimum Temperature 6ºC on .
From till Wind 270º 10kt. Gust 21kt. Visibility 8000m. Broken Clouds 1600ft.
Temporarly from till Wind 260º 17kt. Gust 31kt. Light Showers Rain . Few Clouds 500ft. Broken Clouds 1500ft.
With 40% probability, Temporarly from till Light Thunderstorm Rain . Broken Clouds 1200ft.
Becoming from till Wind 210º 6kt. Gust 16kt. Visibility 8000m. Broken Clouds 1600ft.

Roh: TAF UUWW 270457Z 2706/2806 27005G11MPS 8000 BKN016 TX15/2713Z TN06/2802Z TEMPO 2706/2717 26009G16MPS -SHRA FEW005 BKN015CB PROB40 TEMPO 2708/2716 -TSRA BKN012CB BECMG 2717/2719 21003G08MPS

Radar- und Niederschlags-Nowcast für 55.6°N 37.27°O

Nieselregen
Leicht
Moderat
Stark
Sehr schwer
Hagel

Die Ortsmarkierung zeigt auf 55.6°N 37.27°O. Diese Animation zeigt das Niederschlagsradar der letzten Stunde, sowie eine 1h Vorhersage. Nieselregen und leichter Schneefall können für das Radar unsichtbar sein. Die Niederschlagsintensität ist farbcodiert von Hellblau bis Orange.

Aktuelle Satelliten- und Regenbilder für 55.6°N 37.27°O

Die Standortmarkierung ist platziert auf 55.6°N 37.27°O. [Mehr]

Das Echtzeit-Satellitenbild kombiniert sichtbares Licht während des Tages mit Infrarotstrahlung während der Nacht. Nachts ist das Bild nicht dunkel, da Infrarotstrahlung Temperaturunterschiede erkennen kann. Leider sind niedrige Wolken und Nebel nur schwer von den Bodentemperaturen zu unterscheiden und können daher nachts fast unsichtbar sein. Meteosat-Satellitenbilder für Europa werden alle 5 Minuten in Echtzeit aktualisiert. Die Bilder GOES-16 / GOES-17 (Nord- und Südamerika) und Himawari (Asien) werden alle 10 Minuten aktualisiert.

Copyright 2022 EUMETSAT / meteoblue. / Copyright 2022 meteoblue

Zum Anfang